Погода в Лениногорске

Погода в Лениногорске : погода сейчас, прогноз погоды и архив. Всё, что Вы хотите узнать о погоде в Лениногорске!

Поиск расширенной информации на нашем сайте:

Другие новости

Новости СМИ2

Главная страница сайта

Новости сайта

03.07.2017

Напоминаем, что на нашем специализированном сайте Метеоцентр.Азия вы можете получить высокодетализированные автоматические прогнозы погоды по пунктам России, СНГ и мира в авиационном формате (включающие направление и скорость ветра, видимость, явления погоды, количество и форму облачности, нижнюю и верхнюю границу облачности).


Погода в Лениногорске - сегодня

Время (UTC), дата Ветер
(°,м/с) 
Видим.   Явления Облачность Т
(°С)
Тd
(°С)
f(%) Тe
(°С)
Pmin
(гПа)
dP
(гПа)
Po
(мм)
O2
(г/м3)
Тmin Tmax R s Состояние
почвы
15 21.05.18 060 (СВ) н/о    9/0 средняя, верхняя 
[Ac trans|Ci fib]
+11.2 +1.6 52 +12  1025.1  -0.6  698  270    +18.2       
18 21.05.18 080 (В) н/о    8/0 средняя 
[Ac trans]
+6.8 +2.9 76 +8  1025.8  -0.8  698  274    +18.2       
21 21.05.18 100 (В) н/о    3/0 верхняя 
[Ci fib]
+5.6 +2.3 79 +6  1024  -2  696  274           
00 22.05.18 110 (В) 20000 м    3/0 верхняя 
[Ci fib]
+6.2 +3 80 +7  1022.7  -1  696  273           
06 22.05.18 220 (ЮЗ) 20000 м    9/0 средняя, верхняя 
[Ac trans|Ci fib]
+19.2 +5.2 40 +21  1013.8  -2.2  693  260  +5.4         
09 22.05.18 200 (Ю) 20000 м    9/0 средняя, верхняя 
[Ac trans|Ci fib]
+23 +4.5 30 +23  1009.6  -2.7  691  256           
12 22.05.18 230 (ЮЗ) 20000 м    6/0 верхняя 
[Ci fib]
+22.4 +6.6 36 +22  1007  -2.5  689  255           
15 22.05.18 220 (ЮЗ) н/о    3/0 верхняя 
[Ci fib]
+18.8 +5.4 41 +20  1006.6  -1.4  688  258    +24.2       
18 22.05.18 170 (Ю) н/о    8/0 средняя, верхняя 
[Ac lent|Ci fib]
+18.2 +5.4 43 +19  1003  -3.5  685  258    +24.2       
03 23.05.18 200 (Ю) 12-15{18}  20000 м    9/6 1000 м кучево-дожд., средняя, верхняя 
[Cb calv|Ac lent|Ci fib]
+16.8 +6 49 +16  996.1  -2  680  257      0.0     
09 23.05.18 300 (СЗ) 20000 м  {гроза, ливн. осадки}  9/9 600 м кучево-дожд. 
[Cb calv]
+7.2 +5.3 88 +7  1002.6  2.5  682  267           
21 23.05.18 100 (В) н/о  слаб. ливневой дождь  10/10 600 м кучево-дожд. 
[Cb calv]
+1.8 -0.3 86 +3  1013.5  3.1  688  275           
09 24.05.18 280 (З) 20000 м  {ливн. осадки}  9/9 600 м кучево-дожд. 
[Cb calv]
+4.1 +0 75 +4  1026.9  698  277           
12 24.05.18 250 (З) 20000 м    9/9 600 м кучево-дожд. 
[Cb calv]
+3.7 -0.7 73 +5  1027.6  0.5  698  278           
21 24.05.18 140 (ЮВ) н/о    9/9 600 м кучево-дожд. 
[Cb calv]
+2.9 -1.4 73 +4  1025.3  -2  697  278           
00 25.05.18 120 (ЮВ) 20000 м    9/8 600 м кучево-дожд., средняя, верхняя 
[Cb calv|Ac trans|Ci fib]
+3.2 -1.3 72 +4  1023.7  -1.3  696  277           
09 25.05.18 080 (В) 20000 м  {ливн. осадки}  9/9 600 м кучево-дожд. 
[Cb calv]
+5.4 +2.1 79 +6  1022.8  0.1  695  274           
12 25.05.18 020 (С) 20000 м    9/9 1000 м кучево-дожд. 
[Cb calv]
+7.2 +3.6 78 +7  1022.2  0.1  696  272           
21 25.05.18 тихо ()   н/о  слаб. ливневой дождь  10/10 600 м кучево-дожд. 
[Cb calv]
+6.8 +4.8 87 +7  1021.2  -1.5  695  272           
09 26.05.18 200 (Ю) 20000 м    4/0 верхняя 
[Ci fib]
+19.2 +9.6 54 +22  1015.4  -1.5  694  259           
12 26.05.18 210 (ЮЗ) 20000 м    6/0 средняя, верхняя 
[Ac trans|Ci fib]
+21 +4.9 35 +21  1013.7  -1.2  693  258           
15 26.05.18 020 (С) н/о    8/0 средняя, верхняя 
[Ac trans|Ci fib]
+16 +6.8 54 +16  1014.6  -0.7  692  262    +22.2       
18 26.05.18 240 (ЮЗ) н/о    6/0 верхняя 
[Ci fib]
+9.4 +2.9 64 +9  1016.2  -0.6  692  269    +22.2       
21 26.05.18 040 (СВ) н/о    3/0 верхняя 
[Ci fib]
+7.6 +2.3 69 +8  1015.1  -1.6  691  270           
00 27.05.18 180 (Ю) 20000 м    3/0 верхняя 
[Ci fib]
+10.4 +6.1 75 +12  1013.3  -0.7  690  267           
Время (UTC), дата Ветер
(°,м/с) 
Видим.   Явления Облачность Т
(°С)
Тd
(°С)
f(%) Тe
(°С)
Pmin
(гПа)
dP
(гПа)
Po
(мм)
O2
(г/м3)
Тmin Tmax R s Состояние
почвы

Для получения пояснительной информации подведите курсор к названию столбца.

ПОГОДА в Лениногорске - архив

Всё, что Вы хотите узнать о погоде в Лениногорске - удобно и подробно!

Выберите нужную дату (начиная с 1 января 2015* года) и нажмите кнопку "Найти".
Будут отображены архивные сводки погоды по пункту Лениногорск, начиная с указанной даты.


Отображать данные в формате CSV (для использования в таблицах Excel)


Внимание! Наш архив погоды предназначен исключительно для личного некоммерческого использования в познавательных целях. Если Вам необходимы официальные справки о состоянии погоды (для производственных, юридических, коммерческих и т.п. целей), обращайтесь в органы Росгидромета.

*Примечание: данная дата относится к архиву по метеостанциям СССР (Россия, СНГ, Балтия).
Архив по метеостанциям Зарубежной Европы и Азии (кроме Китая) хранится 10 дней, по другим регионам земного шара (Китай, Африка, Америка, Австралия, Океания) - 1 день.

Лениногорск - район местоположения метеостанции


Название, широта, долгота, высота метеостанции:
Лениногорск 50.3°ш. 83.6°д. 811 м над ур. моря [Казахстан]

Дополнительная информация

В oтличие oт бoльшинства пoгoдных сайтoв мы публикуем пoдрoбную метеoинфoрмацию в детальнoм прoфессиoнальнoм фoрмате.

Характеристики температуры и влажнoсти вoздуха измеряются на высoте 2 м в тени вдали oт зданий и деревьев.
Скoрoсть ветра измеряется на высoте 10 м (на урoвне рoста челoвека скoрoсть ветра ниже в 1.5-2 раза). Если метеoстанция нахoдится в гoрoде или в лесу, тo скoрoсть ветра занижена на 2-4 м/с пo сравнению с oткрытым местoм. Скoрoсть ветра над акватoриями крупных рек и oзёр, а также на вершинах хoлмoв на 2-5 м/с выше, чем в oбычных услoвиях.
Атмoсфернoе давление в разных тoчках местнoсти мoжет значительнo oтличаться oт давления на метеoстанции, в зависимoсти oт услoвий рельефа (при пoдъёме на 10 м давление пoнижается примернo на 1 мм рт.ст.).